sat.trackr.live / text

‹ back to catalog

STARLINK-34747

NORAD 64947 · 2025-158R

PAYLOAD ACTIVE UNKNOWN

§ Identity

Operator
Country
US
Launch date
2025-07-27
Launch site
AFWTR
Launch vehicle
Mass (kg)
RCS (m²)

Purposes: comms

External: N2YO · Heavens-Above · Gunter

§ Orbital elements

Epoch: 2026-05-25T02:29:17.509632Z

Period
95.64 min
Inclination
97.4518°
Eccentricity
0.0001561
Mean motion
15.05661822 rev/d
Perigee alt
548.4 km
Apogee alt
550.6 km
Semi-major
6,927.6 km
B*
3.0678e-4
RAAN
9.0268°
Arg perigee
122.3599°
Mean anomaly
237.7779°
Rev number
4,685

§ Raw data

STARLINK-347471 64947U 25158R   26145.10367488  .00004372  00000+0  30678-3 0  99982 64947  97.4518   9.0268 0001561 122.3599 237.7779 15.05661822 46856

JSON: /api/v1/satellites/64947 · /tle

For live sub-satellite position, see the globe view (requires WebGL).

§ Visibility from observer

Set your observer location to see the next 7 days of passes ≥ 10°. The values pass through the URL so the page stays shareable.

No JS? Fill the form by hand. The geolocation button needs JavaScript.